Content
SEND FEEDBACK

Daily
Averages
Monthly
Summary
United States of America

HILLSIDE, NEW JERSEY


Home > North America > United States > New Jersey
Elevation: 40 feet     Latitude: 40 40N     Longitude: 074 14W

WEATHER
 
SELECT A DAY
Number of Records: 189,524;   Date Range: 1/1/95 - 7/22/14
 
SHARE

PRINT THIS DATA

[ ← Previous Day ]
WEATHER ALMANAC - JUNE 9, 2014
[ Next Day → ]
[ °C ]   °F
Weather ElementAverageHighLow
Temperature66.7 °F71.6 °F (3:17 pm)62.6 °F (6:17 am)
Dewpoint62.9 °F66 °F (5:51 pm)54 °F (1:51 am)
Humidity88.1 %100 % (7:55 am)57 % (1:51 am)
Barometer29.94 in29.96 in (9:51 pm)29.90 in (1:51 am)
Wind Speed5.7 mph9.2 mph (1:51 am)
Weather ElementAverage
Visibility5.5 mi
Wind DirectionE (85.4 °)

Weather ElementTotal
Precipitation3.26 in
Cooling Degree Days2.1 (Base 65)
Growing Degree Days17.1 (Base 50)
Averaged from 37 records on June 9, 2014
WEATHER CONDITIONS BREAKOUT
WIND DIRECTION BREAKOUT
WEATHER BY HOUR - JUNE 9, 2014
[ °C ]   °F
Local TimeTemperatureDewpointHumidityBarometerVisibilityWind DirectionWind SpeedGust SpeedPrecipitationEventsConditions
1:51 AM70.0 °F54.0 °F57 %29.90 in10.0 miSouth (190°)9.2 mphOvercast
2:51 AM69.1 °F55.9 °F63 %29.91 in10.0 miSSW (210°)8.1 mphOvercast
3:51 AM64.9 °F60.1 °F84 %29.92 in9.0 miVariable3.5 mph0.02 inRainLight Rain
4:51 AM64.0 °F60.1 °F87 %29.94 in5.0 miSW (220°)3.5 mph0.05 inRainRain
5:51 AM63.0 °F61.0 °F93 %29.95 in3.0 miNorth (350°)5.8 mph0.30 inRainHeavy Rain
6:17 AM62.6 °F60.8 °F94 %29.94 in3.0 miNNE (20°)6.9 mph0.10 inRain-ThunderstormHeavy Thunderstorms and Rain
6:48 AM64.4 °F62.6 °F94 %29.94 in3.0 miENE (70°)6.9 mph0.23 inRainRain
6:51 AM64.0 °F62.1 °F93 %29.94 in3.0 miEast (80°)8.1 mph0.26 inRainHeavy Rain
7:31 AM64.4 °F62.6 °F94 %29.94 in3.0 miEast (100°)5.8 mph0.13 inRainHeavy Rain
7:36 AM64.4 °F62.6 °F94 %29.94 in2.0 miEast (100°)5.8 mph0.19 inRainHeavy Rain
7:51 AM63.0 °F62.1 °F97 %29.94 in2.0 miENE (60°)3.5 mphRainHeavy Rain
7:55 AM62.6 °F62.6 °F100 %29.95 in1.5 miEast (80°)3.5 mph0.03 inRainHeavy Rain
8:13 AM62.6 °F62.6 °F100 %29.94 in1.5 miENE (70°)5.8 mph0.21 inRainLight Rain
8:41 AM62.6 °F62.6 °F100 %29.94 in2.5 miEast (90°)4.6 mph0.32 inRainRain
8:51 AM63.0 °F63.0 °F100 %29.95 in2.5 miEast (100°)3.5 mph0.40 inRainHeavy Rain
9:01 AM62.6 °F62.6 °F100 %29.94 in1.8 miENE (60°)4.6 mph0.16 inRainHeavy Rain
9:48 AM64.4 °F62.6 °F94 %29.94 in3.0 miENE (70°)3.5 mph0.42 inRainLight Rain
9:51 AM64.0 °F63.0 °F96 %29.94 in3.0 miENE (60°)3.5 mph0.43 inRainLight Rain
10:51 AM64.9 °F63.0 °F93 %29.95 in4.0 miENE (60°)4.6 mph0.01 inRainLight Rain
11:51 AM66.9 °F64.9 °F93 %29.94 in9.0 miSE (140°)8.1 mph0.00 inLight Drizzle
12:51 PM66.9 °F64.0 °F90 %29.95 in9.0 miESE (120°)6.9 mph0.00 inOvercast
1:51 PM69.1 °F64.9 °F87 %29.94 in9.0 miEast (90°)3.5 mphOvercast
2:20 PM69.8 °F64.4 °F83 %29.94 in7.0 miENE (70°)5.8 mphOvercast
3:17 PM71.6 °F64.4 °F78 %29.93 in9.0 miENE (60°)5.8 mphOvercast
3:51 PM71.2 °F65.1 °F81 %29.94 in9.0 miEast (100°)3.5 mphOvercast
3:58 PM71.6 °F64.4 °F78 %29.94 in10.0 miEast (80°)4.6 mphOvercast
4:21 PM71.6 °F64.4 °F78 %29.94 in9.0 miENE (60°)4.6 mphOvercast
4:51 PM71.1 °F64.9 °F81 %29.94 in7.0 miNNE (30°)8.1 mphOvercast
4:59 PM71.6 °F64.4 °F78 %29.94 in7.0 miNNE (30°)5.8 mphOvercast
5:51 PM71.1 °F66.0 °F84 %29.94 in6.0 miENE (70°)4.6 mphHaze
6:51 PM70.0 °F64.9 °F84 %29.94 in7.0 miEast (80°)6.9 mphOvercast
6:54 PM69.8 °F64.4 °F83 %29.94 in7.0 miEast (80°)6.9 mphOvercast
7:51 PM70.0 °F64.9 °F84 %29.95 in5.0 miNE (50°)6.9 mphHaze
8:51 PM68.0 °F64.9 °F90 %29.95 in5.0 miNE (50°)5.8 mphOvercast
9:51 PM66.9 °F64.0 °F90 %29.96 in5.0 miNNE (20°)9.2 mphOvercast
10:51 PM66.0 °F64.0 °F93 %29.96 in6.0 miNNE (20°)5.8 mphOvercast
11:51 PM66.0 °F63.0 °F90 %29.96 in6.0 miNNE (20°)8.1 mphOvercast
Hourly data recorded from KEWR, located miles away from Hillside, New Jersey







STORIES FROM OUR PARTNERS